Johnstown, PA

5:51 AM EDT on July 25, 2017 (GMT -0400)
Johnstown-Cambria County

Weather History for KJST - December, 2013

Change the Weather History Date:

Monday, December 9, 2013

  Actual Average Record
Temperature  
Mean Temperature 29 °F 30 °F  
Max Temperature 34 °F 36 °F 72 °F (1966)
Min Temperature 24 °F 24 °F 1 °F (1917)
Degree Days  
Heating Degree Days 36 35  
Month to date heating degree days 271 302  
Since 1 July heating degree days 1902 1759  
Cooling Degree Days 0 0  
Month to date cooling degree days 0 0  
Year to date cooling degree days 393 382  
Moisture  
Dew Point 29 °F    
Average Humidity 93    
Maximum Humidity 100    
Minimum Humidity 85    
Precipitation  
Precipitation 0.02 in 0.08 in 1.14 in (1986)
Month to date precipitation 1.28 0.81  
Year to date precipitation 35.27 31.86  
Sea Level Pressure  
Sea Level Pressure 30.01 in    
Wind  
Wind Speed 13 mph (SSW)    
Max Wind Speed 23 mph    
Max Gust Speed 32 mph    
Visibility 4 miles    
Events Fog , Rain , Snow    
T = Trace of Precipitation, MM = Missing Value Source: NWS Daily Summary

Daily Weather History Graph

Daily Weather History Graph

Search for Another Location

Airport or City:

Trip Planner

Search our weather history database for the weather conditions in past years. The results will help you decide how hot, cold, wet, or windy it might be!

Date:

Astronomy

Dec. 09, 2013 Rise Set
Actual Time 7:26 AM EST 4:49 PM EST
Civil Twilight 6:55 AM EST 5:19 PM EST
Nautical Twilight 6:21 AM EST 5:53 PM EST
Astronomical Twilight 5:48 AM EST 6:26 PM EST
Moon 12:17 PM EST (12/9) No Moon Set
Length of Visible Light 10h 23m
Length of Day
9h 22m
Waxing Crescent, 51% of the Moon is Illuminated
Dec 9
Waxing Crescent
Dec 17
Full
Dec 25
Last Quarter
Jan 1
New
Jan 7
First Quarter

Hourly Weather History & Observations

Time (EST) Temp. Windchill Dew Point Humidity Pressure Visibility Wind Dir Wind Speed Gust Speed Precip Events Conditions
12:41 AM 25.0 °F 13.6 °F 23.0 °F 92% 30.08 in 3.0 mi SSE 12.7 mph - 0.00 in Rain Light Freezing Rain
12:54 AM 25.0 °F 14.2 °F 24.1 °F 96% 30.17 in 2.5 mi South 11.5 mph - 0.00 in Rain Light Freezing Rain
1:23 AM 27.0 °F 15.6 °F 25.0 °F 92% 30.05 in 4.0 mi South 13.8 mph - 0.00 in Rain Light Freezing Rain
1:39 AM 27.0 °F 16.1 °F 26.1 °F 96% 30.03 in 3.0 mi South 12.7 mph - 0.00 in Snow Light Snow
1:54 AM 27.0 °F 17.3 °F 25.0 °F 92% 30.14 in 6.0 mi South 10.4 mph 16.1 mph 0.00 in   Overcast
2:15 AM 27.0 °F 16.7 °F 25.0 °F 92% 30.03 in 5.0 mi South 11.5 mph - 0.00 in Rain Light Freezing Rain
2:36 AM 27.0 °F 16.7 °F 25.0 °F 92% 30.02 in 2.5 mi South 11.5 mph - 0.00 in Snow Light Snow
2:42 AM 27.0 °F 17.3 °F 26.1 °F 96% 30.02 in 1.8 mi South 10.4 mph - 0.00 in Snow Light Snow
2:54 AM 27.0 °F 16.7 °F 26.1 °F 96% 30.12 in 1.8 mi South 11.5 mph - 0.00 in Snow Light Snow
3:02 AM 27.0 °F 17.3 °F 26.1 °F 96% 30.01 in 2.0 mi SSE 10.4 mph - 0.01 in   Overcast
3:13 AM 27.0 °F 17.3 °F 26.1 °F 96% 30.00 in 2.5 mi SSE 10.4 mph - 0.01 in Rain Light Freezing Rain
3:44 AM 27.0 °F 17.3 °F 26.1 °F 96% 30.00 in 3.0 mi South 10.4 mph - 0.01 in Rain Light Freezing Rain
3:54 AM 27.0 °F 18.0 °F 26.1 °F 96% 30.09 in 4.0 mi South 9.2 mph - 0.01 in   Overcast
4:08 AM 27.0 °F 18.7 °F 26.1 °F 96% 29.98 in 3.0 mi SSE 8.1 mph - N/A   Overcast
4:40 AM 28.0 °F 18.1 °F 27.0 °F 96% 29.98 in 2.5 mi South 11.5 mph - 0.00 in Snow Light Snow
4:54 AM 28.0 °F 17.5 °F 27.0 °F 96% 30.06 in 2.0 mi SSE 12.7 mph - 0.01 in Rain Light Freezing Rain
5:07 AM 28.0 °F 18.1 °F 27.0 °F 96% 29.97 in 5.0 mi South 11.5 mph - 0.00 in Rain Light Freezing Rain
5:16 AM 28.0 °F 18.1 °F 27.0 °F 96% 29.98 in 7.0 mi South 11.5 mph - 0.00 in   Overcast
5:34 AM 28.0 °F 18.6 °F 27.0 °F 96% 29.96 in 3.0 mi South 10.4 mph - 0.00 in Rain Light Freezing Rain
5:54 AM 28.0 °F 18.6 °F 27.0 °F 96% 30.06 in 4.0 mi South 10.4 mph - 0.00 in Rain Light Freezing Rain
6:16 AM 28.9 °F 18.6 °F 28.0 °F 96% 29.95 in 4.0 mi South 12.7 mph - 0.00 in Rain Light Freezing Rain
6:37 AM 28.9 °F 20.4 °F 28.0 °F 96% 29.95 in 4.0 mi South 9.2 mph - 0.00 in   Overcast
6:49 AM 28.4 °F 18.5 °F 28.4 °F 100% 29.95 in 3.0 mi South 11.5 mph - 0.00 in   Overcast
6:54 AM 28.9 °F 20.4 °F 28.0 °F 96% 30.04 in 3.0 mi South 9.2 mph - 0.00 in   Overcast
7:41 AM 30.0 °F 22.4 °F 28.9 °F 96% 29.96 in 1.8 mi South 8.1 mph - N/A   Overcast
7:54 AM 30.0 °F 21.7 °F 30.0 °F 100% 30.04 in 1.8 mi South 9.2 mph - N/A   Overcast
8:30 AM 30.9 °F 25.2 °F 30.9 °F 100% 29.96 in 0.5 mi SSW 5.8 mph - N/A Fog Light Freezing Fog
8:54 AM 30.9 °F 24.3 °F 30.9 °F 100% 30.05 in 0.5 mi South 6.9 mph - N/A Fog Light Freezing Fog
9:07 AM 32.0 °F 24.8 °F 32.0 °F 100% 29.96 in 1.2 mi SSW 8.1 mph - N/A   Overcast
9:32 AM 33.1 °F 26.1 °F 32.0 °F 96% 29.96 in 0.8 mi SSW 8.1 mph - N/A   Mist
9:49 AM 33.8 °F 25.8 °F 33.8 °F 100% 29.95 in 0.2 mi SSW 10.4 mph - N/A Fog Fog
9:54 AM 34.0 °F 26.6 °F 33.1 °F 96% 30.04 in 0.2 mi SSW 9.2 mph - N/A Fog Fog
10:03 AM 34.0 °F 28.0 °F 33.1 °F 96% 29.96 in 0.5 mi SW 6.9 mph - N/A Fog Fog
10:12 AM 33.1 °F 26.9 °F 33.1 °F 100% 29.96 in 0.2 mi SW 6.9 mph - N/A Fog Fog
10:54 AM 34.0 °F 26.0 °F 33.1 °F 96% 30.04 in 0.2 mi SW 10.4 mph - N/A Fog Fog
11:54 AM 34.0 °F 24.2 °F 34.0 °F 100% 30.02 in 0.2 mi WSW 15.0 mph - N/A Fog Fog
12:48 PM 33.8 °F 23.5 °F 33.8 °F 100% 29.95 in 1.2 mi WSW 16.1 mph 25.3 mph 0.00 in   Overcast
12:51 PM 33.8 °F 23.2 °F 33.8 °F 100% 29.95 in 3.0 mi WSW 17.3 mph 25.3 mph 0.00 in   Overcast
12:54 PM 34.0 °F 25.0 °F 34.0 °F 100% 30.02 in 3.0 mi West 12.7 mph 25.3 mph 0.00 in   Overcast
12:56 PM 34.0 °F 25.5 °F 34.0 °F 100% 29.95 in 0.8 mi West 11.5 mph 25.3 mph N/A   Overcast
1:04 PM 33.1 °F 22.2 °F 33.1 °F 100% 29.95 in 0.2 mi West 17.3 mph 24.2 mph 0.00 in Fog , Rain Light Rain
1:12 PM 33.1 °F 22.2 °F 33.1 °F 100% 29.94 in 1.0 mi West 17.3 mph 26.5 mph 0.00 in   Overcast
1:37 PM 33.1 °F 22.2 °F 32.0 °F 96% 29.95 in 3.0 mi WSW 17.3 mph 28.8 mph 0.00 in   Overcast
1:49 PM 32.0 °F 21.6 °F 32.0 °F 100% 29.94 in 10.0 mi WSW 15.0 mph 25.3 mph 0.00 in   Overcast
1:54 PM 32.0 °F 22.1 °F 32.0 °F 100% 30.02 in 9.0 mi West 13.8 mph 25.3 mph 0.00 in   Overcast
2:35 PM 32.0 °F 21.2 °F 30.0 °F 92% 29.94 in 10.0 mi West 16.1 mph 27.6 mph N/A   Overcast
2:54 PM 32.0 °F 22.1 °F 30.0 °F 92% 30.02 in 10.0 mi WSW 13.8 mph 25.3 mph N/A   Overcast
3:22 PM 32.0 °F 19.8 °F 28.0 °F 85% 29.95 in 10.0 mi West 20.7 mph 32.2 mph N/A   Overcast
3:54 PM 32.0 °F 20.8 °F 28.0 °F 85% 30.03 in 10.0 mi WSW 17.3 mph 27.6 mph N/A   Overcast
4:07 PM 32.0 °F 22.1 °F 28.0 °F 85% 29.96 in 10.0 mi WSW 13.8 mph 26.5 mph N/A   Overcast
4:54 PM 30.9 °F 19.4 °F 28.0 °F 89% 30.06 in 10.0 mi West 17.3 mph 27.6 mph N/A   Overcast
5:54 PM 30.9 °F 20.7 °F 26.1 °F 82% 30.07 in 10.0 mi WSW 13.8 mph 27.6 mph N/A   Overcast
6:45 PM 30.0 °F 18.3 °F 26.1 °F 85% 30.00 in 10.0 mi WSW 17.3 mph 26.5 mph N/A   Overcast
6:54 PM 30.0 °F 18.7 °F 26.1 °F 85% 30.08 in 10.0 mi West 16.1 mph 25.3 mph N/A   Overcast
7:54 PM 28.9 °F 18.2 °F 26.1 °F 89% 30.09 in 10.0 mi West 13.8 mph 23.0 mph N/A   Overcast
8:54 PM 28.0 °F 17.0 °F 26.1 °F 92% 30.10 in 10.0 mi West 13.8 mph 20.7 mph N/A   Overcast
9:54 PM 28.0 °F 17.5 °F 25.0 °F 88% 30.09 in 10.0 mi WSW 12.7 mph 20.7 mph N/A   Overcast
10:54 PM 27.0 °F 15.2 °F 24.1 °F 89% 30.08 in 10.0 mi West 15.0 mph - N/A   Overcast
11:54 PM 27.0 °F 14.7 °F 23.0 °F 85% 30.05 in 10.0 mi West 16.1 mph 24.2 mph N/A   Overcast